Back to catalog

STARLINK-36496

AliveCommunicationsVLEO
NORAD 67329·PAYLOAD·🇺🇸 United States

Launched Jan 4, 2026 from Cape Canaveral Space Force Station

Loading…

Next Passes (next 24 hours)

TLE

FreshSource: CelesTrak SupGP

Epoch: Sep 14, 2026, 23:18 UTC

1 67329C 26002AA  26257.97131944 -.00008966  00000+0 -32475-3 0  2578
2 67329  43.0038 336.2817 0001984 266.7297 224.9864 15.27583200    17

Track STARLINK-36496 in real time with AllMySat

Download on the App Store